223P/Skiff (2019)

Japanese version
Home page
Updated on March 30, 2021

---------------------------------------------------------------------

* Profile

* Pictures

* Orbital Elements

Epoch 2019 Feb. 6.0 TT = JDT 2458520.5                                          
T 2019 Jan. 27.27351 TT                                 Rudenko                 
q   2.4308776            (2000.0)            P               Q                  
n   0.11624469     Peri.   37.82525     +0.89381810     -0.43625675             
a   4.1580270      Node   346.79277     +0.21162858     +0.61439792             
e   0.4153771      Incl.   27.01411     +0.39535117     +0.65741558             
P   8.48                                                                        
From 773 observations 2002 Sept. 19-2021 Feb. 8, mean residual 0".6.            
     Nongravitational parameters A1 = -0.54, A2 = -0.0007.                      

* Magnitudes Graph

        m1 = 12.5 + 5 log d + 10.0 log r

---------------------------------------------------------------------

The orbital elements are published on M.P.E.C. 2021-F20.
The magnitudes graphs are made with Comet for Windows.

---------------------------------------------------------------------

Copyright(C) Seiichi Yoshida (comet@aerith.net). All rights reserved.